Wind_Speed
47 48 47 48 48 47 46 45 43 43 42 40 39 38 37 36 36 35 34 34 33 33 33 32 32 33 33 34 35 35 36 37 38 39 39 40 40 40 41 42 43 43 43
47 48 47 47 48 48 47 45 44 43 42 41 40 39 38 38 37 36 35 35 35 35 35 34 34 34 35 35 36 38 38 39 40 41 42 42 42 42 44 45 45 45 45
47 47 47 47 47 48 47 46 45 44 43 42 41 40 40 39 38 37 36 36 36 36 36 36 36 37 37 38 39 40 40 41 42 43 44 45 45 45 45 46 47 47 48
46 48 48 48 47 47 47 46 46 45 44 43 42 41 40 39 38 38 38 38 38 38 38 38 38 39 39 40 40 41 42 43 44 45 46 47 47 47 47 46 47 49 50
45 46 47 48 48 48 48 47 47 46 44 43 42 41 41 40 40 40 40 40 40 39 39 39 40 41 41 42 43 43 44 45 46 47 47 47 48 48 48 48 49 50 50
45 45 46 47 48 48 48 48 47 46 45 45 44 43 42 41 41 41 41 41 41 41 41 41 42 43 43 44 45 45 46 47 47 47 48 48 48 48 49 50 51 51 51
44 45 46 47 47 48 48 48 48 47 47 46 46 45 44 43 43 42 42 42 42 43 43 44 44 44 45 45 46 47 47 47 47 48 48 48 48 50 51 52 52 52 52
42 43 44 45 47 47 47 47 47 47 47 46 46 45 45 45 44 44 44 44 44 44 45 45 45 45 46 46 47 47 47 47 47 47 47 48 49 50 51 51 52 52 52
40 42 42 43 44 45 46 47 47 47 47 47 47 46 46 45 45 45 45 45 45 45 45 45 45 46 46 46 46 46 46 46 46 47 47 48 48 49 49 50 51 52 52
38 40 41 41 42 43 44 44 45 45 45 46 46 46 46 46 46 46 46 46 45 45 45 45 45 45 46 46 45 45 45 46 45 45 46 47 47 47 48 49 49 50 50
37 38 39 40 40 41 42 42 43 43 43 44 44 45 45 45 45 45 45 45 45 45 45 45 45 45 45 45 44 44 44 44 44 45 45 45 46 46 46 47 48 48 48
36 37 37 38 39 39 40 41 42 42 42 42 43 43 44 44 44 44 43 43 43 43 44 44 44 44 43 43 42 42 42 42 43 43 44 44 45 45 45 46 46 46 46
34 35 36 37 37 38 39 40 41 41 41 41 41 42 42 42 42 42 42 42 42 42 42 42 42 42 41 41 40 40 40 41 41 42 42 43 43 43 43 44 43 44 44
32 33 34 36 36 37 37 38 39 40 40 40 40 40 40 40 41 41 41 41 41 41 40 40 40 39 39 38 38 38 39 39 40 41 41 41 40 41 41 41 41 41 41
28 30 32 33 34 34 35 35 36 37 37 38 38 38 38 38 38 38 39 39 39 38 38 37 37 37 37 37 37 36 37 37 38 38 38 38 38 39 39 39 38 38 38
26 27 28 29 30 31 32 32 33 33 34 35 35 35 36 36 36 36 36 36 36 35 35 35 35 35 35 35 34 35 35 36 36 36 36 36 37 37 37 37 36 36 37
24 25 25 26 26 27 28 28 29 30 30 31 32 32 33 33 33 34 34 33 33 33 33 33 33 33 33 33 33 34 35 34 34 34 35 35 36 36 36 36 36 37 37
22 22 23 23 24 24 25 25 26 27 27 28 29 30 31 31 32 32 32 31 31 31 31 31 31 31 31 32 32 33 32 32 33 33 33 34 34 34 35 36 37 37 38
20 21 21 21 22 22 23 24 24 25 26 27 28 28 29 29 30 30 30 30 29 29 29 29 29 29 30 30 30 31 31 32 32 32 33 33 34 34 35 36 36 37 38
20 20 20 20 21 22 22 23 24 24 25 26 27 27 27 28 28 28 28 27 27 27 27 27 27 28 28 29 29 30 31 31 31 32 32 33 34 35 35 36 37 38 40
19 19 19 20 20 21 22 22 23 24 24 25 25 25 26 26 26 26 26 26 26 26 26 27 27 27 28 28 29 30 30 30 31 31 32 33 35 36 37 37 39 40 41
19 19 20 20 20 21 22 22 23 23 23 24 24 24 24 24 24 25 25 25 25 26 26 26 27 27 28 28 29 29 29 30 31 32 33 34 35 36 37 39 40 42 43
20 20 20 21 21 22 22 22 22 22 22 23 23 23 23 23 24 24 24 24 25 25 25 26 27 27 28 28 28 28 29 30 31 33 34 35 36 37 39 40 42 43 44
21 21 21 21 21 21 21 22 22 22 22 22 22 23 23 23 23 23 24 24 24 25 25 26 26 27 27 28 28 28 29 31 32 33 35 36 37 39 40 42 43 44 45
22 22 21 21 21 20 21 21 21 21 21 21 21 21 22 22 23 23 23 24 24 25 25 26 26 27 27 28 28 29 30 31 33 34 36 37 39 40 41 43 44 45 45
22 22 22 21 21 21 20 20 20 21 21 21 21 22 22 23 23 24 24 24 25 25 25 26 26 27 27 28 29 30 31 33 34 36 37 38 40 41 43 44 45 46 46
Wind_Direction
229 229 229 229 230 231 232 233 235 238 240 242 245 248 251 254 258 260 264 267 269 270 272 274 276 277 279 280 281 281 282 282 282 283 283 283 284 285 284 283 283 283 283
230 230 230 230 231 231 232 234 237 239 241 244 246 248 251 254 258 261 265 267 268 270 273 275 276 278 280 281 282 282 282 283 283 284 284 285 285 285 284 284 284 284 284
230 231 231 231 232 232 233 235 237 240 243 245 248 250 252 255 259 262 264 266 268 271 273 275 277 278 280 281 282 283 283 284 284 285 285 285 285 284 285 285 285 285 285
231 232 232 232 233 233 234 236 238 240 243 246 249 251 253 256 259 261 263 266 269 271 273 275 277 278 279 281 282 283 284 284 285 285 286 286 286 286 286 286 286 286 286
231 232 232 233 234 235 235 237 238 240 243 246 249 251 254 256 259 261 264 266 269 271 273 275 277 278 280 281 282 283 284 285 286 286 287 287 287 287 288 288 288 287 287
231 232 232 233 234 235 236 238 239 241 243 245 248 251 254 256 259 261 263 266 269 271 273 275 277 278 280 282 283 284 285 286 286 287 287 287 287 288 288 289 289 288 288
231 231 233 234 234 235 237 238 240 242 244 246 248 250 253 255 258 260 263 265 268 270 273 275 276 278 280 281 283 284 285 286 286 287 287 287 288 289 289 289 289 289 289
231 232 232 233 234 235 237 238 240 242 243 246 248 250 252 255 257 260 263 265 267 270 272 274 276 278 280 281 283 284 285 286 286 287 287 287 288 289 289 289 289 289 289
231 232 232 233 234 235 237 238 240 242 244 246 248 250 252 254 257 259 262 264 267 269 271 274 276 278 280 281 283 284 285 285 286 287 287 288 289 289 289 289 289 290 290
231 232 233 234 235 235 236 238 240 242 244 246 248 250 253 255 257 259 262 264 267 269 271 273 276 278 279 281 282 283 284 285 286 286 288 289 289 289 290 290 290 290 289
230 232 233 234 235 236 237 238 240 241 244 246 249 251 253 255 258 260 263 265 267 268 270 273 275 277 279 280 281 282 283 284 285 286 288 289 289 290 291 292 291 291 290
231 233 234 234 235 236 238 239 240 242 244 246 248 251 253 256 259 261 263 265 267 268 271 273 275 277 278 279 281 282 283 284 285 287 288 289 290 291 292 293 293 293 292
232 234 235 235 236 238 239 240 241 242 244 247 249 251 253 255 258 260 262 265 267 269 271 273 275 276 278 279 280 282 283 285 286 288 289 290 292 293 293 293 294 294 293
234 235 236 237 238 240 240 241 243 243 245 247 249 251 253 255 258 260 262 264 267 269 271 273 274 276 277 278 280 282 284 286 287 289 291 291 293 295 296 296 296 296 295
235 236 237 238 239 240 242 243 244 245 246 247 249 252 253 255 258 260 262 264 267 269 271 272 273 275 277 279 281 283 285 287 289 291 292 293 295 296 297 298 298 297 297
236 237 238 238 239 241 243 244 245 246 247 248 250 252 253 255 258 260 263 265 266 268 269 271 273 275 278 279 281 284 287 288 290 291 292 294 296 298 299 299 300 300 300
238 239 239 239 240 241 242 244 245 246 247 248 249 252 254 256 258 260 262 264 265 267 269 271 274 276 278 280 282 285 287 289 290 293 295 296 297 299 299 300 300 302 301
236 238 238 239 240 240 241 243 244 245 247 248 250 253 254 256 258 259 261 263 265 267 270 272 274 276 279 282 284 286 288 289 292 294 296 298 299 300 300 301 301 302 302
236 238 239 240 241 241 242 244 245 246 248 250 252 254 255 257 258 259 261 263 265 267 270 273 275 278 281 283 285 287 289 291 293 295 297 299 300 301 302 302 302 302 303
237 239 240 240 241 242 244 245 247 249 250 252 253 255 256 257 258 259 261 263 265 268 271 274 277 279 282 285 287 289 291 292 295 296 298 300 302 302 303 303 303 304 304
240 241 241 243 244 245 246 248 250 251 252 253 253 254 256 256 258 260 261 263 265 268 271 275 277 280 283 286 288 290 292 294 296 298 300 301 302 303 303 304 305 306 306
242 243 245 247 248 248 250 251 252 253 253 253 253 254 255 257 259 260 262 263 266 269 272 275 278 281 284 287 289 292 294 295 297 300 302 303 303 304 305 306 306 307 307
243 246 248 249 251 252 251 252 253 253 254 254 254 255 256 259 260 261 262 265 267 270 274 277 279 281 284 287 290 292 295 297 299 301 302 304 305 306 306 307 307 307 307
246 248 250 251 252 252 252 252 253 253 254 255 256 257 257 258 260 262 264 267 269 272 275 278 280 282 285 288 291 293 295 298 300 302 303 305 306 307 307 308 308 308 309
249 249 250 251 252 253 253 252 253 253 254 256 257 257 257 259 261 264 266 268 271 274 277 279 282 284 287 290 292 294 296 299 301 303 304 306 307 308 309 309 310 310 310
250 251 252 252 252 253 253 254 254 254 255 257 257 258 259 261 262 265 267 270 273 275 278 280 283 286 288 291 293 295 297 299 302 303 305 307 308 309 310 310 311 311 311
Height
5763 5768 5773 5779 5784 5789 5794 5799 5803 5806 5810 5813 5816 5819 5821 5822 5824 5824 5825 5826 5826 5826 5826 5826 5825 5824 5824 5822 5821 5819 5818 5816 5814 5812 5811 5809 5807 5806 5803 5800 5798 5796 5793
5755 5760 5766 5771 5776 5781 5786 5791 5795 5798 5802 5805 5808 5810 5813 5814 5816 5817 5818 5818 5818 5818 5818 5818 5818 5817 5816 5814 5813 5811 5809 5807 5805 5803 5801 5800 5799 5796 5793 5791 5788 5786 5783
5747 5752 5758 5763 5768 5773 5778 5783 5787 5790 5793 5797 5799 5802 5804 5807 5809 5810 5810 5810 5810 5810 5810 5810 5809 5808 5807 5806 5804 5802 5800 5799 5796 5794 5791 5790 5789 5786 5784 5781 5778 5775 5773
5739 5744 5750 5755 5759 5764 5769 5774 5778 5781 5785 5788 5791 5793 5796 5798 5800 5801 5801 5802 5802 5802 5802 5801 5801 5800 5798 5797 5795 5793 5791 5789 5787 5784 5781 5779 5777 5775 5773 5771 5768 5764 5761
5731 5736 5741 5746 5751 5755 5760 5764 5768 5772 5776 5779 5782 5784 5787 5789 5791 5791 5792 5793 5793 5793 5793 5792 5791 5790 5789 5787 5785 5783 5781 5778 5776 5773 5771 5768 5765 5763 5760 5759 5757 5753 5749
5722 5727 5732 5737 5742 5746 5751 5755 5759 5763 5766 5770 5773 5776 5778 5780 5781 5782 5783 5784 5784 5784 5783 5782 5781 5780 5779 5777 5775 5773 5770 5768 5765 5763 5760 5757 5754 5752 5748 5746 5744 5741 5737
5713 5718 5723 5728 5732 5737 5741 5746 5750 5754 5757 5760 5763 5766 5769 5770 5772 5773 5774 5774 5774 5774 5773 5773 5771 5770 5768 5767 5765 5762 5760 5757 5754 5752 5749 5746 5743 5740 5737 5733 5730 5727 5724
5705 5709 5714 5718 5723 5727 5732 5736 5740 5744 5747 5751 5754 5756 5759 5761 5762 5763 5764 5764 5764 5764 5763 5762 5761 5760 5758 5756 5754 5751 5749 5746 5744 5741 5738 5735 5732 5728 5724 5721 5717 5713 5711
5697 5701 5705 5709 5713 5718 5722 5727 5731 5734 5738 5741 5744 5746 5749 5750 5752 5753 5754 5754 5754 5754 5753 5752 5751 5749 5747 5745 5743 5741 5738 5736 5733 5730 5727 5724 5720 5716 5713 5709 5704 5700 5696
5689 5692 5696 5700 5704 5708 5713 5717 5721 5724 5728 5731 5734 5736 5738 5740 5741 5742 5743 5743 5743 5743 5742 5741 5740 5739 5737 5735 5733 5730 5728 5725 5722 5719 5716 5713 5709 5705 5701 5697 5692 5687 5682
5681 5684 5688 5692 5696 5700 5704 5707 5711 5715 5718 5721 5724 5726 5728 5730 5731 5732 5733 5733 5733 5732 5732 5731 5730 5728 5726 5724 5722 5720 5718 5715 5712 5709 5705 5702 5698 5694 5689 5685 5680 5675 5670
5673 5677 5680 5684 5688 5691 5695 5698 5702 5705 5708 5711 5714 5716 5718 5719 5721 5721 5722 5722 5722 5722 5721 5720 5719 5718 5716 5714 5712 5710 5707 5704 5702 5698 5695 5691 5687 5682 5678 5673 5668 5664 5659
5666 5669 5673 5676 5680 5683 5686 5689 5693 5696 5699 5702 5704 5706 5708 5709 5710 5711 5712 5712 5712 5711 5711 5710 5709 5707 5706 5704 5702 5699 5697 5694 5691 5688 5684 5680 5676 5672 5667 5662 5657 5652 5648
5659 5662 5665 5669 5672 5675 5678 5681 5684 5687 5689 5692 5694 5696 5698 5699 5700 5701 5702 5702 5702 5701 5701 5700 5699 5697 5696 5694 5692 5689 5687 5684 5681 5677 5674 5670 5666 5661 5656 5651 5646 5642 5638
5653 5655 5658 5661 5664 5667 5670 5672 5675 5678 5680 5683 5685 5687 5688 5690 5691 5691 5692 5692 5692 5692 5691 5690 5689 5688 5686 5684 5682 5680 5677 5674 5671 5667 5664 5660 5656 5651 5646 5641 5637 5632 5628
5647 5649 5652 5654 5657 5659 5662 5664 5667 5669 5672 5674 5676 5678 5679 5680 5681 5682 5682 5683 5683 5682 5682 5681 5680 5679 5677 5675 5673 5670 5668 5665 5661 5658 5654 5650 5646 5641 5637 5632 5628 5623 5619
5641 5643 5645 5648 5650 5652 5654 5657 5659 5661 5663 5666 5667 5669 5671 5672 5673 5673 5673 5674 5674 5674 5673 5672 5671 5669 5668 5666 5664 5661 5659 5655 5652 5649 5645 5641 5637 5632 5628 5623 5619 5615 5610
5635 5637 5639 5641 5644 5646 5648 5650 5652 5654 5656 5658 5659 5661 5662 5663 5664 5664 5665 5665 5665 5665 5664 5664 5662 5661 5659 5657 5655 5652 5649 5646 5643 5640 5636 5632 5628 5624 5619 5615 5610 5606 5601
5630 5632 5634 5636 5638 5640 5642 5644 5646 5647 5649 5650 5652 5653 5654 5655 5656 5656 5657 5657 5657 5657 5656 5655 5654 5653 5651 5648 5646 5643 5641 5638 5634 5631 5627 5623 5619 5615 5611 5606 5602 5597 5592
5625 5627 5629 5631 5632 5634 5636 5637 5639 5640 5642 5643 5644 5645 5646 5647 5648 5648 5649 5649 5649 5649 5648 5647 5646 5644 5643 5640 5638 5635 5632 5629 5626 5622 5619 5615 5611 5606 5602 5598 5593 5588 5583
5620 5622 5624 5625 5627 5628 5630 5631 5632 5634 5635 5636 5637 5638 5639 5639 5640 5641 5641 5641 5641 5641 5640 5639 5638 5636 5635 5632 5630 5627 5624 5621 5617 5614 5610 5606 5602 5598 5593 5588 5583 5578 5572
5616 5617 5619 5620 5621 5623 5624 5625 5626 5627 5628 5629 5630 5631 5632 5632 5633 5633 5633 5634 5634 5633 5632 5631 5630 5629 5627 5624 5622 5619 5616 5613 5609 5606 5602 5598 5593 5589 5584 5579 5574 5568 5562
5611 5612 5613 5614 5615 5617 5618 5619 5620 5621 5622 5622 5623 5624 5625 5625 5626 5626 5626 5626 5626 5626 5625 5624 5622 5621 5619 5616 5614 5611 5608 5605 5601 5598 5594 5589 5584 5580 5575 5569 5563 5557 5551
5605 5606 5608 5608 5609 5610 5611 5612 5613 5614 5615 5616 5617 5617 5618 5618 5619 5619 5619 5619 5619 5618 5617 5616 5615 5613 5611 5609 5606 5603 5600 5597 5593 5589 5585 5580 5575 5570 5565 5559 5553 5547 5540
5599 5600 5601 5602 5603 5604 5605 5606 5607 5608 5609 5609 5610 5611 5611 5612 5612 5612 5612 5612 5611 5611 5610 5608 5607 5605 5603 5601 5598 5595 5592 5588 5585 5580 5576 5571 5566 5561 5555 5548 5542 5535 5529
5593 5594 5595 5596 5597 5598 5599 5600 5601 5602 5602 5603 5604 5604 5605 5605 5605 5605 5605 5604 5604 5603 5602 5601 5599 5597 5595 5593 5590 5587 5584 5580 5576 5572 5567 5562 5556 5550 5544 5538 5531 5524 5517